Home   Weather   Bergheim   Past weeks

Flag for Germany Past Weather in Bergheim, North Rhine-Westphalia, Germany — Yesterday and Last 2 Weeks

Now
46 °F

Sprinkles. Partly cloudy.


Feels Like: 38 °F
Forecast: 40 / 48 °F
Wind: 23 mph from West

Location: Noervenich

Current Time: Feb 27, 2017 at 7:32:13 pm

Latest Report: Feb 27, 2017 at 6:25 pm


Visibility: 6 mi

Pressure: 29.33 "Hg

Humidity: 82%

Dew Point: 41 °F

Location of BergheimLocation

Past Weather in Bergheim — Graph

°F

Bergheim Temperature Yesterday

Maximum temperature yesterday: 57 °F (at 3:20 pm)
Minimum temperature yesterday: 45 °F (at 12:20 am)
Average temperature yesterday: 49 °F

High & Low Weather Summary for the Past Weeks

 TemperatureHumidityPressure
High57 °F (Feb 15, 3:20 pm)100% (Feb 21, 1:20 am)30.51 "Hg (Feb 21, 1:20 am)
Low32 °F (Feb 13, 3:20 am)46% (Feb 14, 2:20 pm)29.30 "Hg (Feb 23, 4:20 pm)
Average45 °F77%30.09 "Hg
* Reported Feb 12 6:20 pm — Feb 27 6:25 pm, Bergheim, Weather by CustomWeather, © 2017

Note: Actual official high and low records may vary slightly from our data, if they occured in-between our weather recording intervals... More about our weather records

Advertising

Bergheim Weather History for the Previous 24 Hours

Scroll right to see more
 ConditionsComfort  
Time TempWeatherWind HumidityBarometerVisibility
6:25 pm
Mon, Feb 27
46 °FSprinkles. Partly cloudy.23 mph82%29.33 "Hg6 mi
5:20 pm54 °FBroken clouds.13 mph58%29.30 "HgN/A
4:20 pm55 °FPartly sunny.13 mph51%29.36 "HgN/A
3:20 pm54 °FPartly sunny.10 mph58%29.42 "HgN/A
2:20 pm54 °FPartly sunny.17 mph54%29.47 "HgN/A
1:20 pm54 °FPartly sunny.10 mph58%29.50 "HgN/A
12:20 pm54 °FCool.12 mph63%29.53 "HgN/A
11:20 am54 °FCool.13 mph63%29.56 "HgN/A
10:20 am52 °FCool.10 mph67%29.59 "HgN/A
9:20 am52 °FCool.12 mph62%29.62 "HgN/A
8:20 am52 °FCool.8 mph67%29.65 "HgN/A
7:20 am52 °FCool.10 mph67%29.68 "HgN/A
6:20 am52 °FCool.6 mph67%29.68 "HgN/A
5:20 am52 °FPassing clouds.8 mph67%29.71 "HgN/A
4:20 am52 °FPassing clouds.8 mph67%29.74 "HgN/A
3:20 am50 °FPassing clouds.6 mph76%29.77 "HgN/A
2:20 am50 °FPassing clouds.5 mph71%29.80 "HgN/A
1:20 am52 °FPassing clouds.8 mph67%29.80 "HgN/A
12:20 am50 °FPassing clouds.7 mph71%29.80 "HgN/A
11:20 pm
Sun, Feb 26
50 °FPassing clouds.6 mph71%29.83 "HgN/A
10:20 pm48 °FPassing clouds.7 mph76%29.83 "HgN/A
9:20 pm48 °FCool.10 mph76%29.86 "HgN/A
8:20 pm50 °FCool.8 mph76%29.86 "HgN/A
7:20 pm50 °FCool.8 mph76%29.86 "HgN/A
Weather by CustomWeather, © 2017

See weather overviewHow to use our weather pages